Location: Arrodets-la-Barthe
(43.0306°N, 0.2829°E)
Time: 08:23:50
(UTC+00:00)

CUBEBUG 2 - Pass Details

Date: 08 April 2023
Orbit: 577 x 685 km, 97.8° (Epoch: 03 June)

Event Time Altitude Azimuth Distance (km) Brightness Sun altitude
Rises 02:35:39 0° 12° (NNE) 3,043 ? -28.8°
Reaches altitude 10° 02:37:55 10° 12° (NNE) 2,113 ? -28.5°
Enters shadow 02:41:28 53° 8° (N) 821 ? -28.1°
